STARLINK-2513, 48317

Orbit data source: Space-Track

STARLINK-2513, 48317 is a payload satellite owned by SpaceX/Seattle (US) in LEO that was launched on Thu, 29 Apr 2021 UTC via an FALCON 9 launch vehicle from the Air Force Eastern Test Range (AFETR). Payload-class satellites include a variety of spacecraft equipped with specific instruments for various scientific and technological missions. These include communications satellites like Starlink; space stations such as the ISS; scientific satellites like the Hubble; Earth observation satellites from companies like Planet Labs, Umbra, and HawkEye 360; GPS; miniature CubeSats for education and research; and military/defense satellites.

Loading next visibility...
Identifier
48317, 2021-036AT
Orbit
LEO
Country
Flag of USUS
Related business
Manufacturer
SpaceX/Seattle
Mission
Operational Commercial Communications
Bus & Motor
STARLINK, Unknown motor
Mass
260 kg wet, ~248 kg dry
Launch date (UTC)
2021-04-29 (5 years ago)
Launch vehicle
FALCON 9
Launch site
Air Force Eastern Test Range (AFETR)
Object type
Payload
Rocket body
Debris
Shape & HBR
Box + 1 Pan, 10.1 m
Radar Cross Section
13.562 m², Large (>1 m²)

Expand to show TLE details & history
Last TLE update: 16 hours ago

TLE from 16 hours ago
0 STARLINK-2513
1 48317U 21036AT  26035.82591228  .00000719  00000-0  67140-4 0  9997
2 48317  53.0549 239.1475 0001602  88.7371 271.3802 15.06394909263218
Epoch: 2026-02-04T19:49Z
TLE epoch observation values (Epoch: 2026-02-04T19:49:18.820Z)
Latitude
-0.00001°
Longitude
166.83215°
Altitude
548.08 km
Speed
7.589 km/s
True Right ascension
15h 56m 35s
True Declination
0° 00' 00"
Sunlit
Object was in daylight at epoch
Visualization orbit readout
Latitude
Unknown
Longitude
Unknown
Altitude
Unknown
Speed
Unknown
Apparent Right ascension
Unknown
Apparent Declination
Unknown
Sunlit
N/A
Visualization observer readout
Local Sidereal Time
13:36:03
Azimuth
Unknown
Elevation
Unknown
Doppler factor
Unknown
Orbital elements
Apogee altitude
548.607 km
Perigee altitude
546.388 km
Semi-major axis
6,925.635 km
Eccentricity
0.00016
Inclination
53.0549°
RAAN
239.1475°
Arg. of periapsis
88.7371°
True anomaly
271.36185°
Mean anomaly
271.3802°
Eccentric anomaly
271.37102°
Mean motion
3.76577 °/min
Orbital period
95.6 mins
BSTAR
0.00006714
Loading maneuver chart data...
Computing Atmospheric mass density...
Loading historical data...
Loading historical data...
Loading historical data...
Loading historical data...
Loading historical data...
Loading historical data...
Loading historical data...

Documentation

Showing up to 5 results
|